ラインムート第1彗星

30P/Reinmuth 1 (1995)

English version
Home page
Updated on September 15, 1999

---------------------------------------------------------------------

・ プロフィール

・ 軌道要素

   The following improved orbital elements by Kenji Muraoka, 
  are from 183 observations 1957 to 1996, including 9 Planets, 
  Moon and 5 minor planets perturbations and non-gravitational 
  effect of style II. The mean residual is +/- 0.90 arc seconds.

      Epoch  =  1995 Aug. 31.0  TT       JDT = 2449960.5
          T  =  1995 Sept. 3.32895       +/- 0.00044 (m.e.) TT
       Peri. =   13.28865                +/- 0.00022
       Node  =  119.74131                +/- 0.00017   (2000.0)
       Incl. =    8.12912                +/- 0.00003
          q  =    1.8736020              +/- 0.0000017 AU
          e  =    0.5024914              +/- 0.0000003
          a  =    3.7659689              +/- 0.0000011 AU
          n  =    0.13486181             +/- 0.00000006
          P  =    7.308                  +/- 0.0000033  years
         A1  =   +0.254                  +/- 0.021
         A2  =   -0.01541                +/- 0.00025

・ 星図

・ 1994年10月 5日〜1995年 9月10日
・ 1995年 7月12日〜1996年 6月16日

・ 光度変化

        m1 = 10.0 + 5 logΔ + 15.0 log r

---------------------------------------------------------------------

軌道要素は村岡健治氏の計算によるものです。
星図は StellaNavigator Ver.2.0 for Windows (アストロアーツ 編著 / アスキー出版局刊) で作成したものです。
光度グラフはComet for Windowsで作成したものです。

---------------------------------------------------------------------

Copyright(C) Seiichi Yoshida (comet@aerith.net). All rights reserved.